Flag for Denmark Weather past 2 weeks in Roskilde, Denmark

Now
45 °F

Broken clouds.


Feels Like: 38 °F
Forecast: 38 / 45 °F
Wind: 13 mph from West

Location: Koebenhavn / Roskilde

Current Time: Mar 6, 2015 at 3:51:39 PM

Latest Report: Mar 6, 2015 at 3:20 PM


Visibility: N/A

Pressure: 30.33 "Hg

Humidity: 93%

Dew point: 43 °F

Location of RoskildeLocation

Historic Weather in Roskilde — Graph

°F

Roskilde temperature yesterday

Maximum temperature yesterday: 45 °F (at 2:20 PM)
Minimum temperature yesterday: 32 °F (at 2:20 AM)
Average temperature yesterday: 38 °F

Past Weeks' High & Low Weather Summary

 TemperatureHumidityPressure
High46 °F (Feb 26, 1:20 PM)100% (Feb 20, 7:50 AM)30.45 "Hg (Feb 20, 7:50 AM)
Low28 °F (Feb 26, 1:50 AM)65% (Feb 28, 12:50 PM)29.15 "Hg (Feb 21, 3:50 PM)
Average37 °F89%29.75 "Hg
* Reported Feb 19 2:20 PM — Mar 6 2:50 PM, Roskilde, Weather by CustomWeather, © 2015

Note: Actual official high and low records may vary slightly from our data, if they occured in-between our weather recording intervals... More about our weather records

Advertising

Roskilde weather history for previous 24 hours

 ConditionsComfort  
Time TempWeatherWind HumidityBarometerVisibility
2:50 PM
Fri, Mar 6
45 °FMostly cloudy.12 mph93%30.33 "Hg4 mi
2:20 PM45 °FMostly cloudy.14 mph93%30.33 "HgN/A
1:50 PM45 °FPartly sunny.13 mph93%30.33 "HgN/A
1:20 PM45 °FMore clouds than sun.14 mph93%30.33 "HgN/A
12:50 PM45 °FBroken clouds.16 mph87%30.33 "HgN/A
12:20 PM45 °FBroken clouds.16 mph87%30.33 "HgN/A
11:50 AM45 °FPartly sunny.14 mph87%30.33 "HgN/A
11:20 AM43 °FMostly cloudy.14 mph93%30.33 "HgN/A
10:50 AM43 °FMore clouds than sun.14 mph93%30.33 "HgN/A
10:20 AM43 °FMostly cloudy.12 mph93%30.33 "HgN/A
9:50 AM43 °FCloudy.14 mph93%30.33 "HgN/A
9:20 AM43 °FMostly cloudy.13 mph87%30.33 "HgN/A
8:50 AM41 °FBroken clouds.13 mph93%30.33 "HgN/A
8:20 AM41 °FMostly cloudy.13 mph93%30.33 "HgN/A
7:50 AM41 °FMore clouds than sun.14 mph93%30.33 "HgN/A
7:20 AM41 °FCloudy.13 mph93%30.33 "HgN/A
6:50 AM39 °FPartly sunny.9 mph100%30.36 "HgN/A
6:20 AM41 °FLow clouds.12 mph87%30.36 "HgN/A
5:50 AM41 °FPartly cloudy.10 mph87%30.36 "HgN/A
5:20 AM41 °FMostly cloudy.9 mph87%30.36 "HgN/A
4:50 AM39 °FPartly cloudy.10 mph93%30.36 "Hg6 mi
4:20 AM39 °FPassing clouds.13 mph93%30.39 "Hg5 mi
3:50 AM39 °FPassing clouds.12 mph93%30.36 "Hg4 mi
3:20 AM39 °FPartly cloudy.13 mph93%30.36 "Hg4 mi
2:50 AM39 °FPartly cloudy.12 mph93%30.36 "Hg5 mi
2:20 AM39 °FMostly cloudy.9 mph93%30.39 "Hg5 mi
1:50 AM39 °FSprinkles. Passing clouds.9 mph93%30.39 "HgN/A
1:20 AM39 °FPartly cloudy.10 mph93%30.42 "HgN/A
12:50 AM39 °FPassing clouds.12 mph93%30.42 "HgN/A
12:20 AM39 °FPassing clouds.9 mph93%30.42 "HgN/A
11:50 PM
Thu, Mar 5
39 °FPassing clouds.9 mph87%30.42 "HgN/A
11:20 PM39 °FPassing clouds.8 mph87%30.42 "HgN/A
10:50 PM39 °FPartly cloudy.8 mph87%30.42 "HgN/A
10:20 PM39 °FOvercast.7 mph87%30.42 "HgN/A
9:20 PM39 °FOvercast.6 mph87%30.45 "HgN/A
8:50 PM39 °FPassing clouds.5 mph87%30.45 "HgN/A
8:20 PM37 °FPassing clouds.6 mph93%30.45 "HgN/A
7:50 PM37 °FPassing clouds.5 mph93%30.45 "HgN/A
7:20 PM37 °FPassing clouds.6 mph93%30.45 "HgN/A
6:50 PM39 °FPassing clouds.5 mph87%30.45 "HgN/A
6:20 PM41 °FPassing clouds.3 mph81%30.45 "HgN/A
5:50 PM41 °FPartly sunny.5 mph81%30.45 "HgN/A
5:20 PM41 °FPartly sunny.7 mph81%30.45 "HgN/A
4:50 PM43 °FPartly sunny.7 mph71%30.42 "HgN/A
4:20 PM43 °FPassing clouds.10 mph76%30.42 "HgN/A
3:50 PM43 °FPassing clouds.9 mph71%30.42 "HgN/A
3:20 PM43 °FQuite cool.12 mph66%30.42 "HgN/A
Weather by CustomWeather, © 2015

See weather overviewHow to use our weather pages